Home > Weather > Mashhad > Past weeks

Flag for Iran Weather for the Past 2 Weeks in Mashhad, Iran

Now
79 °F

Sunny.


Feels Like: 79 °F
Forecast: 65 / 83 °F
Wind: 9 mph from Southeast

Location: Mashhad Airport

Current Time: May 6, 2016 at 10:55:46 AM

Latest Report: May 6, 2016 at 10:00 AM


Visibility: 10 mi

Pressure: 30.01 "Hg (26.83 "Hg at 981m altitude)

Humidity: 39%

Dew Point: 52 °F

Location of MashhadLocation

Historic Weather in Mashhad — Graph

°F

Mashhad Temperature Yesterday

Maximum temperature yesterday: 93 °F (at 3:30 PM)
Minimum temperature yesterday: 61 °F (at 3:30 AM)
Average temperature yesterday: 77 °F

High & Low Weather Summary for the Past Weeks

 TemperatureHumidityPressure
High93 °F (May 5, 3:30 PM)100% (May 1, 9:00 PM)30.24 "Hg (May 1, 9:00 PM)
Low50 °F (Apr 22, 3:30 AM)11% (Apr 28, 3:30 PM)29.80 "Hg (May 5, 2:30 PM)
Average68 °F54%30.00 "Hg
* Reported Apr 21 9:30 AM — May 6 9:30 AM, Mashhad, Weather by CustomWeather, © 2016

Note: Actual official high and low records may vary slightly from our data, if they occured in-between our weather recording intervals... More about our weather records

Advertising

Mashhad Weather History for the Previous 24 Hours

Scroll right to see more
 ConditionsComfort  
Time TempWeatherWind HumidityBarometerVisibility
9:30 AM
Fri, May 6
77 °FSunny.7 mph42%30.01 "Hg10 mi
9:00 AM75 °FSunny.9 mph44%30.01 "Hg10 mi
8:30 AM75 °FSunny.14 mph41%30.01 "Hg10 mi
8:00 AM72 °FSunny.9 mph57%30.01 "Hg10 mi
7:30 AM72 °FSunny.5 mph47%30.01 "Hg10 mi
7:00 AM68 °FClear.9 mph53%30.01 "Hg10 mi
6:30 AM68 °FClear.9 mph56%30.01 "Hg10 mi
6:00 AM66 °FPassing clouds.5 mph56%30.01 "HgN/A
5:30 AM66 °FPassing clouds.No wind49%30.01 "HgN/A
5:00 AM66 °FPassing clouds.5 mph60%29.98 "HgN/A
4:30 AM68 °FPassing clouds.5 mph53%29.98 "HgN/A
4:00 AM68 °FPassing clouds.5 mph53%29.98 "HgN/A
3:30 AM68 °FClear.7 mph46%29.98 "Hg10 mi
3:00 AM66 °FClear.2 mph49%29.95 "Hg10 mi
2:30 AM70 °FClear.5 mph43%29.95 "Hg10 mi
2:00 AM70 °FSmoke.5 mph40%29.95 "HgN/A
1:30 AM72 °FClear.7 mph41%29.95 "Hg10 mi
1:00 AM72 °FClear.7 mph41%29.95 "Hg10 mi
12:30 AM70 °FClear.7 mph46%29.95 "Hg10 mi
12:00 AM72 °FClear.No wind47%29.95 "Hg10 mi
11:30 PM
Thu, May 5
73 °FClear.5 mph41%29.95 "Hg10 mi
11:00 PM75 °FClear.7 mph36%29.92 "Hg10 mi
10:30 PM77 °FClear.9 mph36%29.92 "Hg10 mi
10:00 PM77 °FClear.7 mph39%29.89 "Hg10 mi
9:30 PM77 °FPassing clouds.7 mph42%29.86 "HgN/A
9:00 PM77 °FPassing clouds.5 mph42%29.86 "HgN/A
8:30 PM79 °FPassing clouds.7 mph39%29.86 "HgN/A
8:00 PM79 °FScattered clouds.12 mph37%29.83 "HgN/A
7:30 PM82 °FScattered clouds.5 mph30%29.83 "HgN/A
7:00 PM84 °FScattered clouds.7 mph29%29.80 "HgN/A
6:30 PM91 °FBroken clouds.5 mph18%29.80 "HgN/A
6:00 PM93 °FBroken clouds.5 mph14%29.80 "HgN/A
5:30 PM91 °FBroken clouds.9 mph14%29.80 "HgN/A
5:00 PM91 °FBroken clouds.14 mph14%29.80 "HgN/A
4:30 PM91 °FBroken clouds.12 mph13%29.80 "HgN/A
4:00 PM91 °FBroken clouds.12 mph14%29.80 "HgN/A
3:30 PM93 °FBroken clouds.16 mph14%29.80 "HgN/A
3:00 PM91 °FBroken clouds.12 mph16%29.80 "HgN/A
2:30 PM91 °FBroken clouds.14 mph15%29.80 "HgN/A
2:00 PM91 °FScattered clouds.12 mph14%29.83 "HgN/A
1:30 PM91 °FScattered clouds.18 mph15%29.83 "HgN/A
1:00 PM91 °FScattered clouds.16 mph20%29.83 "HgN/A
12:30 PM90 °FScattered clouds.7 mph24%29.83 "HgN/A
12:00 PM86 °FScattered clouds.5 mph25%29.83 "HgN/A
11:30 AM81 °FSunny.7 mph37%29.86 "Hg10 mi
11:00 AM79 °FSunny.5 mph39%29.86 "Hg10 mi
10:30 AM77 °FSunny.7 mph42%29.86 "Hg10 mi
10:00 AM75 °FSunny.7 mph44%29.86 "Hg10 mi
Weather by CustomWeather, © 2016

See weather overviewHow to use our weather pages